Terminal Aerodrome Forecast
Issued by NWS Grand Junction, CO

Home | Current Version | Previous Version | Text Only | Print | Product List | Glossary On
Versions: 1 2 3 4 5 6 7 8 9 10 11 12 13 14 15 16 17 18 19 20 21 22 23 24
000
FTUS45 KGJT 192330
TAFGJT
TAF
KGJT 192330Z 2000/2024 30007KT P6SM FEW150
     FM200200 04005KT P6SM FEW150
     FM200400 08006KT P6SM SKC
     FM200900 12008KT P6SM SKC
     FM202000 26008KT P6SM FEW110 SCT250=

USA.gov is the U.S. government's official web portal to all federal, state and local government web resources and services.